This is the latest recevied weather packets stored in our database for station/object IZ1UQG-N2. If no packets are shown the sender has not sent any weather packets the latest 10 day(s).
| Time | Temp. | Humidity | Pressure | Rain* | Wind** | Luminosity | Snow |
|---|---|---|---|---|---|---|---|
| 1787621020 | 17.78° C | 93% | 1010 hPa | 16.26 mm | - | 0 W/m² | - |
| 1787620960 | 17.78° C | 93% | 1010.1 hPa | 16.26 mm | - | 0 W/m² | - |
| 1787620900 | 17.78° C | 93% | 1010.2 hPa | 16.26 mm | - | 0 W/m² | - |
| 1787620840 | 17.22° C | 93% | 1010.1 hPa | 16.51 mm | - | 0 W/m² | - |
| 1787620781 | 17.22° C | 93% | 1010.1 hPa | 16.51 mm | - | 0 W/m² | - |
| 1787620721 | 17.22° C | 93% | 1010.2 hPa | 16.51 mm | - | 0 W/m² | - |
| 1787620661 | 17.22° C | 93% | 1010.2 hPa | 16.26 mm | - | 0 W/m² | - |
| 1787620601 | 17.22° C | 93% | 1010.2 hPa | 16.26 mm | - | 0 W/m² | - |
| 1787620541 | 17.22° C | 92% | 1010.2 hPa | 16 mm | - | 0 W/m² | - |
| 1787620480 | 17.78° C | 93% | 1010.3 hPa | 16 mm | - | 0 W/m² | - |
| 1787620420 | 17.22° C | 93% | 1010.2 hPa | 16 mm | - | 0 W/m² | - |
| 1787620360 | 17.22° C | 93% | 1010.3 hPa | 16 mm | - | 0 W/m² | - |
| 1787620300 | 17.22° C | 92% | 1010.4 hPa | 16.26 mm | - | 0 W/m² | - |
| 1787620241 | 17.22° C | 92% | 1010.2 hPa | 16 mm | - | 0 W/m² | - |
| 1787620181 | 17.22° C | 93% | 1010.4 hPa | 16 mm | - | 0 W/m² | - |
| 1787620121 | 17.78° C | 93% | 1010.4 hPa | 15.75 mm | - | 0 W/m² | - |
| 1787620061 | 17.78° C | 92% | 1010.4 hPa | 15.75 mm | - | 0 W/m² | - |
| 1787620001 | 17.78° C | 93% | 1010.5 hPa | 15.49 mm | - | 0 W/m² | - |
| 1787619940 | 17.78° C | 92% | 1010.4 hPa | 15.49 mm | - | 0 W/m² | - |
| 1787619880 | 17.22° C | 92% | 1010.4 hPa | 15.75 mm | - | 0 W/m² | - |
| 1787619821 | 17.78° C | 92% | 1010.5 hPa | 15.75 mm | - | 0 W/m² | - |
| 1787619761 | 17.78° C | 92% | 1010.5 hPa | 15.75 mm | - | 0 W/m² | - |
| 1787619701 | 17.78° C | 92% | 1010.7 hPa | 15.49 mm | - | 0 W/m² | - |
| 1787619641 | 17.78° C | 92% | 1010.6 hPa | 15.49 mm | - | 0 W/m² | - |
| 1787619581 | 17.78° C | 92% | 1010.5 hPa | 15.49 mm | - | 0 W/m² | - |
* Rain latest hour (hover to see other rain measurements)
** Current wind speed in m/s (hover to see current wind gust speed)